Regional Weather Roundup
Issued by NWS

Home | Current Version | Previous Version | Graphics & Text | Print | Product List | Glossary On
Versions: 1 2 3 4 5 6 7 8 9 10 11 12 13 14 15 16 17 18 19 20 21 22 23 24 25 26 27 28 29 30 31 32 33 34 35 36 37 38 39 40 41 42 43 44 45 46 47 48 49 50
000
ASUS43 KLOT 161010
RWRIL

ILLINOIS REGIONAL WEATHER ROUNDUP
NATIONAL WEATHER SERVICE CHICAGO/ROMEOVILLE IL
500 AM CDT WED APR 16 2014

NOTE: "FAIR" INDICATES FEW OR NO CLOUDS BELOW 12,000 FEET WITH NO
SIGNIFICANT WEATHER AND/OR OBSTRUCTIONS TO VISIBILITY.

* THESE STATIONS ARE NOT UNDER NWS QUALITY CONTROL. THEY ALSO MAY NOT
  REPORT WEATHER SUCH AS PRECIPITATION OR FOG.

ILZ001-002-007-009-015-016-024-161100-
NORTHWEST ILLINOIS

CITY           SKY/WX    TMP DP  RH WIND       PRES   REMARKS
MOLINE         CLEAR     32  22  66 SE12      30.14F WCI  23
STERLING*      CLEAR     30  21  69 SE6       30.18S WCI  24
SAVANNA*       CLEAR     31  22  68 SE8       30.16F WCI  23
$$

ILZ003-004-008-010-011-017-018-161100-
NORTH CENTRAL ILLINOIS

CITY           SKY/WX    TMP DP  RH WIND       PRES   REMARKS
ROCKFORD       PTCLDY    30  22  72 SE10      30.22R WCI  21
FREEPORT*      CLEAR     27  23  85 SE6       30.19S WCI  21
ROCHELLE*      CLEAR     29  25  83 SE9       30.21R WCI  21
DE KALB*       CLEAR     28  22  80 SE9       30.22R WCI  19
PERU*          CLEAR     32  25  76 CALM      30.21R
$$

ILZ005-006-012>014-019>023-161100-
NORTHEAST ILLINOIS

CITY           SKY/WX    TMP DP  RH WIND       PRES   REMARKS
CHICAGO-OHARE  PTCLDY    27  19  72 S7        30.24R WCI  19
CHICAGO-MIDWAY CLEAR     32  21  64 S8        30.25S WCI  25
AURORA         CLEAR     27  22  81 SE8       30.23S WCI  19
LANSING*       CLEAR     28  20  71 SE6       30.27S WCI  22
WAUKEGAN       MOCLDY    30  20  66 S7        30.24R WCI  23
DUPAGE AIRPORT FAIR      28  21  75 S8        30.23R WCI  20
KANKAKEE*      CLEAR     30  23  76 SE9       30.27S WCI  21
WHEELING       PTCLDY    28  20  71 S6        30.26R WCI  22
MORRIS*        CLEAR     32  22  67 SE9       30.23S WCI  24
ROMEOVILLE*    CLEAR     29  22  75 S9        30.25R WCI  20
NORTHERLY ISL    N/A     33  20  59 S8          N/A  WCI  26
$$

LMZ740>746-161100-
SOUTHERN LAKE MICHIGAN

STATION/POSITION SKY/WX   TEMP    WIND        PRES    VSBY  WAVE
                          AIR SEA DIR/SP/G                  HT/PER
                          (F)     (DEG/KT/KT) (MB)    (MI)  (FT/S)
WAUKEGAN HARBOR            35     200/ 12/ 14 1025.1S
HARRISON CRIB              35     180/ 18/ 21   N/A
BURNHAM HARBOR             33     180/  6/ 13   N/A
CALUMET HARBOR             31     160/  7/ 10 1025.3S
MICHIGAN CITY              30     140/ 10/ 13   N/A
$$

ILZ025>027-034>036-040-047-049-050-058-095>099-161100-
WEST-CENTRAL ILLINOIS

CITY           SKY/WX    TMP DP  RH WIND       PRES   REMARKS
QUINCY         CLEAR     37  22  54 S10       30.12S WCI  30
GALESBURG*     CLEAR     33  26  75 SE8       30.15S WCI  26
MACOMB*        CLEAR     34  26  73 S15       30.17S WCI  24
JACKSONVILLE*  CLEAR     36  25  64 SE13      30.19F WCI  27
PITTSFIELD*    CLEAR     35  27  71 SE10      30.16F WCI  27
$$

ILZ028>032-037-038-041>044-048-051>054-059>061-161100-
CENTRAL ILLINOIS

CITY           SKY/WX    TMP DP  RH WIND       PRES   REMARKS
PONTIAC        CLEAR     32  27  80 S12       30.24S WCI  23
BLOOMINGTON    CLEAR     28  22  78 S14       30.23S WCI  17
DECATUR        CLEAR     32  24  72 S8        30.25R WCI  25
PEORIA         CLEAR     34  22  61 SE6       30.20S WCI  29
LACON*         CLEAR     32  23  69 S7        30.21R WCI  26
LINCOLN*       CLEAR     32  27  82 S9        30.24S WCI  24
SPRINGFIELD    CLEAR     36  24  62 S14       30.22S WCI  27
TAYLORVILLE    CLEAR     32  25  74 S8        30.25R WCI  25
$$

ILZ033-039-045-046-055>057-062-063-161100-
EAST-CENTRAL ILLINOIS

CITY           SKY/WX    TMP DP  RH WIND       PRES   REMARKS
CHAMPAIGN      CLEAR     29  25  85 SE8       30.26S WCI  21
RANTOUL*       CLEAR     31  26  81 CALM      30.28S
MATTOON        PTCLDY    31  24  75 SE8       30.26S WCI  23
PARIS*         CLEAR     31  25  80 SE7       30.30S WCI  24
$$

ILZ079-100>102-161100-
SOUTHWEST ILLINOIS

CITY           SKY/WX    TMP DP  RH WIND       PRES   REMARKS
ALTON          CLEAR     33  24  69 SE7       30.23S WCI  27
BELLEVILLE     PTCLDY    34  26  72 SE7       30.24S WCI  28
CAHOKIA*       PTCLDY    34  26  72 SE7       30.23S WCI  28
SPARTA*        MOCLDY    34  27  75 SE5       30.26R WCI  30
$$

ILZ064>066-069>071-074>076-080>082-084>086-088>090-092>094-161100-
SOUTH-CENTRAL ILLINOIS

CITY           SKY/WX    TMP DP  RH WIND       PRES   REMARKS
CARBONDALE     MOCLDY    34  24  67 SE6       30.27S WCI  29
CAIRO*         CLEAR     38  28  67 SE8       30.28S WCI  32
MARION         PTCLDY    34  27  75 SE5       30.28S WCI  30
MT. VERNON     MOCLDY    34  19  55 SE5       30.28S WCI  30
CENTRALIA*       N/A     34  25  68 SE8       30.26S WCI  27
SALEM*         PTCLDY    36  26  67 SE3       30.27R
METROPOLIS*    CLEAR     31  26  83 CALM      30.28S
$$

ILZ067-068-072-073-078-083-087-091-161100-
SOUTHEAST ILLINOIS

CITY           SKY/WX    TMP DP  RH WIND       PRES   REMARKS
FLORA*         MOCLDY    32  27  82 SE5       30.30R WCI  27
FAIRFIELD*     MOCLDY    36  28  75 SE5       30.29S WCI  32
HARRISBURG*    PTCLDY    33  28  83 SE5       30.30F WCI  28
ROBINSON*      MOCLDY    34  27  77 SE7       30.32R WCI  28
CARMI*         PTCLDY    36  32  85 SE7       30.30R WCI  31
$$

ABBREVIATIONS USED IN REMARKS
   TC - TEMPERATURE IN CELSIUS
  WCI - WIND CHILL INDEX
   HX - HEAT INDEX
  VSB - VISIBILITY
$$




USA.gov is the U.S. government's official web portal to all federal, state and local government web resources and services.